AirNav   BOSE ProFlight Aviation Headset
 
 849 users online  

61J Portland Downtown Heliport
Portland, Oregon, USA

GOING TO PORTLAND?


FAA INFORMATION EFFECTIVE 21 JUNE 2018

Location

FAA Identifier: 61J
Lat/Long: 45-31-31.0000N / 122-40-15.3440W
45-31.516667N / 122-40.255733W
45.5252778 / -122.6709289
(estimated)
Elevation: 78 ft. / 23.8 m (surveyed)
Variation: 18E (2000)
Time zone: UTC -7 (UTC -8 during Standard Time)
Zip code: 97209

Heliport Operations

Heliport use: Open to the public
Activation date: 07/1989
Control tower: no
ARTCC: SEATTLE CENTER
FSS: MC MINNVILLE FLIGHT SERVICE STATION
NOTAMs facility: MMV (NOTAM-D service available)
Attendance: UNATNDD
Wind indicator: lighted
Segmented circle: no
Lights: FOR HELIPORT PLASI WHEN APPROACHING FLT APCH & TKOF 020 - ACTVT CTAF 3 TIMES; WHEN APPROACHING FLIGHT APCH & TKOF 025 - ACTVT CTAF 5 TIMES; WHEN APPROACHING FLT APCH & TKOF 030 - ACTVT CTAF 7 TIMES.
Beacon: white-green-yellow (heliport)
Operates sunset to sunrise.
Landing fee: yes

Heliport Communications

CTAF/UNICOM: 123.075
WX ASOS at PDX (5 nm NE): PHONE (503) 493-7687
WX ASOS at VUO (6 nm N): 135.125 (360-696-1280)
WX ASOS at TTD (11 nm E): 135.625 (503-492-2887)
WX ASOS at HIO (12 nm W): PHONE 503-640-2984
WX ASOS at SPB (17 nm NW): 135.875 (503-543-6401)
WX ASOS at UAO (17 nm S): PHONE 503-678-3011

Nearby radio navigation aids

VOR radial/distance  VOR name  Freq  Var
BTGr173/13.8BATTLE GROUND VORTAC116.6021E
UBGr030/16.5NEWBERG VOR/DME117.4021E

 
NDB name  Hdg/Dist  Freq  Var  ID
LAKER248/8.833216ELBH .-.. -... ....
BANKS096/17.035616EPND .--. -. -..
KELSO148/39.125617ELSO .-.. ... ---

Heliport Services

Airframe service: NONE
Powerplant service: NONE

Runway Information

Helipad H1

Dimensions: 80 x 80 ft. / 24 x 24 m
Surface: concrete, in good condition
Weight bearing capacity: 
Single wheel: 25.0
Runway edge lights: PERI
YELLOW PERIMETER LGTS; BLUE CNTRLN TWY LGTS TO HELIPADS.
Operational restrictions: SINGLE HELIPORT WITH 4 FLIGHT APCHS 162/220/248/295 & TKOF DIRECTIONS 342/040/068/115.
Traffic pattern: leftleft
Markings: basic, in good condition
Approach lights: ARROW LGTS FOR FLIGHT APCH 220/248/295 & TKOF 040/068/115.

Heliport Ownership and Management from official FAA records

Ownership: Publicly-owned
Owner: CITY OF PORTLAND,GEN SVCS
1120 SW 5 TH AVE
PORTLAND, OR 97204
Phone 503-796-5252
Manager: MICHAEL JACOBS
1120 SW 5TH AVENUE SUITE 800
PORTLAND, OR 97204
Phone (503) 823-7527
N. W. ROTORCRAFT ASSN.

Heliport Operational Statistics

Aircraft operations: avg 99/week *
59% transient general aviation
39% air taxi
2% military
* for 12-month period ending 20 September 2016

Additional Remarks

A52-H1 FLT APCH & TKOF 16 APCH 200 FT BRIDGE 950 FT FROM HELIPAD 280 FT L; FLT APCH & TKOF 20 APCH 225 FT LGTD BLDG 2100 FT FROM HELIPAD 300 FT L; FLT APCH & TKOF 25 APCH 375 FT LGTD BLDG 3600 FT FROM HELIPAD 350 FT R; & FLT APCH & TKOF 30 APCH 115 FT BRIDGE 930 FT FROM HELIPAD ACROSS APCH PATH.
+199 FT RADIO TOWER (LIGHTED) 4950 FT E OF HELIPORT IN FLT APCH & TKOF 025.
FOR CD CTC P80 APCH AT 503-493-7545.

Instrument Procedures

There are no published instrument procedures at 61J.

Some nearby airports with instrument procedures:

KPDX - Portland International Airport (5 nm NE)
KVUO - Pearson Field Airport (6 nm N)
KTTD - Portland-Troutdale Airport (11 nm E)
KHIO - Portland-Hillsboro Airport (12 nm W)
KSPB - Scappoose Industrial Airpark (17 nm NW)
KUAO - Aurora State Airport (17 nm S)
 
Loc | Ops | Rwys | IFR | FBO | Links
Com | Nav | Svcs | Stats | Notes


 
Area around 61J (Portland Downtown Heliport)
 
Road maps at: MapQuest Bing Google
 
Aerial photo
WARNING: Photo may not be current or correct
Aerial photo of 61J (Portland Downtown Heliport)
Photo by Brian Wilson
Photo taken 19-Apr-2006

Do you have a better or more recent aerial photo of Portland Downtown Heliport that you would like to share? If so, please send us your photo.

 
Sectional chart

 
Airport distance calculator
Flying to Portland Downtown Heliport? Find the distance to fly.

From to 61J

Sunrise and sunset
Times for 16-Jul-2018
 Local
(UTC-7)
 Zulu
(UTC)
Morning civil twilight05:0212:02
Sunrise05:3812:38
Sunset20:5503:55
Evening civil twilight21:3104:31

Current date and time
Zulu (UTC)  16-Jul-2018 12:10:02
Local (UTC-7)  16-Jul-2018 05:10:02
 
METAR
KPDX 
5nm NE 
161153Z 28003KT 10SM SCT200 19/13 A2998 RMK AO2 SLP149 T01940128 10267 20194 53006
KVUO 
6nm N 
161153Z AUTO 00000KT 10SM CLR 19/12 A2998 RMK AO2 SLP150 T01890122 10267 20183 53007
KTTD 
11nm E 
161153Z AUTO 00000KT 10SM CLR 18/14 A2997 RMK AO2 SLP149 T01780144 10272 20172 53006
KHIO 
12nm W 
161153Z AUTO 00000KT 10SM CLR 17/12 A2997 RMK AO2 SLP145 T01670117 10256 20156 53003
KSPB 
17nm NW 
161153Z AUTO 16003KT 10SM CLR 14/12 A2997 RMK AO2 SLP147 T01440122 10256 20133 53006
KUAO 
17nm S 
161153Z AUTO 00000KT 10SM CLR 18/13 A2999 RMK AO2 SLP152 T01830133 10261 20172 53006 $
TAF
KPDX 
5nm NE 
161132Z 1612/1712 32004KT P6SM SCT250 FM162100 32009KT P6SM SKC FM170700 31006KT P6SM SKC
KTTD 
11nm E 
161132Z 1612/1712 VRB03KT P6SM SKC FM162100 31007KT P6SM SKC FM170700 28003KT P6SM SKC
KHIO 
12nm W 
161132Z 1612/1712 VRB03KT P6SM SCT250 FM162300 31008KT P6SM SKC FM170800 31004KT P6SM SKC
KUAO 
17nm S 
161132Z 1612/1712 VRB03KT P6SM SCT250 FM162300 33007KT P6SM SKC
NOTAMs
Click for the latest NOTAMs
NOTAMs are issued by the DoD/FAA and will open in a separate window not controlled by AirNav.

 

 
 

Would you like to see your business listed on this page?

 If your business provides an interesting product or service to pilots, flight crews, aircraft, or users of the Portland Downtown Heliport, you should consider listing it here.  To start the listing process, click on the button below
 
Add a business
 

Other Pages about Portland Downtown Heliport

Update a link
 
Copyright © AirNav, LLC. All rights reserved. Privacy Policy  Contact